Flag for Switzerland Weather past 2 weeks in Martigny, Valais, Switzerland

Now
30 °F

Passing clouds.


Feels Like: 26 °F
Forecast: 38 / 56 °F
Wind: 3 mph from East

Location: Sion

Current Time: Dec 22, 2014 at 11:21:46 AM

Latest Report: Dec 22, 2014 at 10:00 AM


Visibility: 14 mi

Pressure: 30.62 "Hg

Humidity: 89%

Dew point: 27 °F

Location of MartignyLocation

Historic Weather in Martigny — Graph

°F

Martigny temperature yesterday

Maximum temperature yesterday: 44 °F (at 2:00 PM)
Minimum temperature yesterday: 29 °F (at 8:00 AM)
Average temperature yesterday: 36 °F

Past Weeks' High & Low Weather Summary

 TemperatureHumidityPressure
High51 °F (Dec 20, 2:00 PM)99% (Dec 18, 10:00 PM)30.67 "Hg (Dec 18, 10:00 PM)
Low26 °F (Dec 10, 2:00 AM)45% (Dec 11, 7:00 PM)29.90 "Hg (Dec 16, 3:00 PM)
Average39 °F80%30.24 "Hg
* Reported Dec 7 10:00 AM — Dec 22 10:00 AM, Martigny, Weather by CustomWeather, © 2014

Note: Actual official high and low records may vary slightly from our data, if they occured in-between our weather recording intervals... More about our weather records

Advertising

Martigny weather history for previous 24 hours

 ConditionsComfort  
Time TempWeatherWind HumidityBarometerVisibility
10:00 AM
Dec 22
30 °FPassing clouds.3 mph89%30.62 "Hg14 mi
9:00 AM29 °FChilly.3 mph90%30.63 "HgN/A
8:00 AM28 °FChilly.1 mph92%30.63 "HgN/A
7:00 AM30 °FClear.5 mph91%30.61 "Hg12 mi
6:00 AM28 °FChilly.1 mph94%30.62 "HgN/A
5:00 AM28 °FChilly.1 mph95%30.63 "HgN/A
4:00 AM30 °FClear.3 mph91%30.63 "Hg9 mi
3:00 AM31 °FChilly.6 mph90%30.63 "HgN/A
2:00 AM29 °FChilly.1 mph94%30.65 "HgN/A
1:00 AM28 °FClear.1 mph98%30.66 "Hg9 mi
12:00 AM29 °FChilly.1 mph93%30.67 "HgN/A
11:00 PM
Dec 21
31 °FChilly.3 mph92%30.66 "HgN/A
9:00 PM33 °FChilly.2 mph87%30.66 "HgN/A
8:00 PM35 °FChilly.3 mph81%30.65 "HgN/A
7:00 PM34 °FPassing clouds.2 mph85%30.63 "Hg16 mi
6:00 PM36 °FChilly.2 mph80%30.61 "HgN/A
5:00 PM38 °FChilly.No wind85%30.59 "HgN/A
4:00 PM41 °FQuite cool.1 mph75%30.58 "HgN/A
3:00 PM43 °FQuite cool.2 mph66%30.57 "HgN/A
2:00 PM44 °FQuite cool.3 mph60%30.57 "HgN/A
1:00 PM43 °FQuite cool.2 mph61%30.58 "HgN/A
12:00 PM39 °FChilly.3 mph78%30.61 "HgN/A
11:00 AM33 °FChilly.3 mph86%30.63 "HgN/A
Weather by CustomWeather, © 2014

See weather overviewHow to use our weather pages